OBJECT F, 44315

Orbit data source: Space-Track

You're viewing an Uncataloged Satellite

Recently launched and/or uncataloged satellites may have evolving metadata. Metadata may include but not limited to: Owner, Maufacturer, Bus, Motor, and Mission.

OBJECT F, 44315 is a satellite owned by Changguang WJ (CN) in LEO that was launched on Wed, 05 Jun 2019 UTC via a CHANG ZHENG 11 launch vehicle from the Yellow Sea Launch Area, China (YSLA). Unknown objects in Earth's orbit typically refer to objects detected orbiting the Earth but have not yet been identified or cataloged. These objects could be anything from previously untracked satellites, spent rocket stages, debris from satellite collisions, or even natural meteoroids temporarily captured by Earth's gravity.

Loading next visibility...
Identifier
44315, 2019-032F
Orbit
LEO
Country
Flag of CNCN / PRC
Related business
None
Manufacturer
CIOMP
Mission
Commercial Imaging
Bus & Motor
JL-1, Unknown motor
Mass
39 kg wet, 39 kg dry
Launch date (UTC)
2019-06-05 (6 years ago)
Launch vehicle
CHANG ZHENG 11
Launch site
Yellow Sea Launch Area, China (YSLA)
Object type
Unknown
Shape & HBR
Box + 2 Pan, 0.8 m
Radar Cross Section
2.000 m², Medium (>0.1 m² and < 1m²)

Expand to show TLE details & history
Last TLE update: 5 hours ago

TLE from 5 hours ago
0 OBJECT F
1 44315U 19032F   25242.91350663  .00048057  00000-0  10772-2 0  9993
2 44315  44.9837  85.2316 0013332 170.9415 189.1716 15.42654187344140
Epoch: 2025-08-30T21:55Z
TLE epoch observation values (Epoch: 2025-08-30T21:55:26.972Z)
Latitude
-0.00006°
Longitude
137.02818°
Altitude
447.247 km
Speed
7.641 km/s
True Right ascension
05h 40m 55s
True Declination
0° 00' 00"
Sunlit
Object was in daylight at epoch
Visualization orbit readout
Latitude
Unknown
Longitude
Unknown
Altitude
Unknown
Speed
Unknown
Apparent Right ascension
Unknown
Apparent Declination
Unknown
Sunlit
N/A
Visualization observer readout
Local Sidereal Time
18:57:50
Azimuth
Unknown
Elevation
Unknown
Doppler factor
Unknown
Orbital elements
Apogee altitude
448.992 km
Perigee altitude
430.812 km
Semi-major axis
6,818.039 km
Eccentricity
0.00133
Inclination
44.9837°
RAAN
85.2316°
Arg. of periapsis
170.9415°
True anomaly
189.14729°
Mean anomaly
189.1716°
Eccentric anomaly
189.15944°
Mean motion
3.85526 °/min
Orbital period
93.38 mins
BSTAR
0.0010772
Loading maneuver chart data...
Computing Atmospheric mass density...
Loading historical data...
Loading historical data...
Loading historical data...
Loading historical data...
Loading historical data...
Loading historical data...
Loading historical data...

Documentation

Showing up to 5 results
|